Challis, ID

1:21 PM MDT on April 27, 2017 (GMT -0600)
Challis

Weather History for KLLJ - September, 2013

Change the Weather History Date:

Friday, September 20, 2013

  Actual Average Record
Temperature  
Mean Temperature 55 °F 54 °F  
Max Temperature 77 °F 71 °F 90 °F (1928)
Min Temperature 33 °F 38 °F 21 °F (1983)
Degree Days  
Heating Degree Days 10 11  
Month to date heating degree days 57 150  
Since 1 July heating degree days 63 223  
Cooling Degree Days 0 0  
Month to date cooling degree days 30 4  
Year to date cooling degree days 420 246  
Growing Degree Days 5 (Base 50)    
Moisture  
Dew Point 26 °F    
Average Humidity 43    
Maximum Humidity 70    
Minimum Humidity 15    
Precipitation  
Precipitation 0.00 in 0.03 in 1.10 in (1968)
Month to date precipitation 0.56 0.54  
Year to date precipitation 3.07 7.93  
Sea Level Pressure  
Sea Level Pressure 29.91 in    
Wind  
Wind Speed 4 mph (ENE)    
Max Wind Speed 23 mph    
Max Gust Speed 30 mph    
Visibility 10 miles    
Events      
T = Trace of Precipitation, MM = Missing Value Source: NWS Daily Summary

Daily Weather History Graph

Daily Weather History Graph

Search for Another Location

Airport or City:

Trip Planner

Search our weather history database for the weather conditions in past years. The results will help you decide how hot, cold, wet, or windy it might be!

Date:

Astronomy

Sep. 20, 2013 Rise Set
Actual Time 7:22 AM MDT 7:37 PM MDT
Civil Twilight 6:52 AM MDT 8:06 PM MDT
Nautical Twilight 6:18 AM MDT 8:40 PM MDT
Astronomical Twilight 5:43 AM MDT 9:15 PM MDT
Moon 8:07 PM MDT (9/20) 8:46 AM MDT (9/20)
Length of Visible Light 13h 13m
Length of Day
12h 15m
Full, 98% of the Moon is Illuminated
Sep 20
Full
Sep 26
Last Quarter
Oct 4
New
Oct 11
First Quarter
Oct 18
Full

Hourly Weather History & Observations

Time (MDT) Temp. Dew Point Humidity Pressure Visibility Wind Dir Wind Speed Gust Speed Precip Events Conditions
12:55 AM 43.0 °F 28.0 °F 56% 30.07 in 10.0 mi Calm Calm - N/A   Clear
1:55 AM 43.0 °F 27.0 °F 53% 30.06 in 10.0 mi Calm Calm - N/A   Clear
2:55 AM 41.0 °F 28.0 °F 60% 30.06 in 10.0 mi Calm Calm - N/A   Clear
3:55 AM 39.0 °F 28.0 °F 65% 30.06 in 10.0 mi Calm Calm - N/A   Clear
4:55 AM 37.9 °F 26.1 °F 62% 30.05 in 10.0 mi Calm Calm - N/A   Clear
5:55 AM 37.0 °F 26.1 °F 65% 30.05 in 10.0 mi Calm Calm - N/A   Clear
6:55 AM 37.0 °F 25.0 °F 62% 30.06 in 10.0 mi Calm Calm - N/A   Clear
7:55 AM 35.1 °F 27.0 °F 72% 30.10 in 10.0 mi Calm Calm - N/A   Clear
8:55 AM 42.1 °F 28.9 °F 60% 30.08 in 10.0 mi Calm Calm - N/A   Clear
9:55 AM 46.9 °F 27.0 °F 46% 30.05 in 10.0 mi Calm Calm - N/A   Clear
10:55 AM 52.0 °F 28.0 °F 40% 30.02 in 10.0 mi Calm Calm - N/A   Clear
11:55 AM 55.9 °F 28.9 °F 36% 29.97 in 10.0 mi Calm Calm - N/A   Clear
12:55 PM 61.0 °F 27.0 °F 27% 29.93 in 10.0 mi NE 3.5 mph - N/A   Clear
1:55 PM 66.0 °F 28.0 °F 24% 29.86 in 10.0 mi North 3.5 mph - N/A   Clear
2:55 PM 69.1 °F 25.0 °F 19% 29.82 in 10.0 mi NE 3.5 mph - N/A   Clear
3:55 PM 72.0 °F 25.0 °F 17% 29.76 in 10.0 mi NW 5.8 mph - N/A   Clear
4:55 PM 75.9 °F 25.0 °F 15% 29.73 in 10.0 mi Calm Calm - N/A   Clear
5:55 PM 75.0 °F 25.0 °F 16% 29.70 in 10.0 mi SE 11.5 mph 17.3 mph N/A   Clear
6:55 PM 71.1 °F 24.1 °F 17% 29.70 in 10.0 mi SSE 18.4 mph 25.3 mph N/A   Clear
7:55 PM 68.0 °F 21.9 °F 17% 29.73 in 10.0 mi South 17.3 mph 25.3 mph N/A   Clear
8:55 PM 68.0 °F 19.0 °F 15% 29.73 in 10.0 mi South 15.0 mph 27.6 mph N/A   Clear
9:55 PM 66.9 °F 19.0 °F 16% 29.73 in 10.0 mi South 13.8 mph 23.0 mph N/A   Clear
10:55 PM 55.9 °F 26.1 °F 32% 29.75 in 10.0 mi North 4.6 mph - N/A   Clear
11:55 PM 54.0 °F 25.0 °F 33% 29.74 in 10.0 mi NNW 6.9 mph - N/A   Clear